Regional Weather Roundup
Issued by NWS

Home | Current Version | Previous Version | Text Only | Print | Product List | Glossary On
Versions: 1 2 3 4 5 6 7 8 9 10 11 12 13 14 15 16 17 18 19 20 21 22 23 24 25 26 27 28 29 30 31 32 33 34 35 36 37 38 39 40 41 42 43 44 45 46 47 48 49 50
000
ASUS44 KOUN 250210
RWROK

WEATHER ROUNDUP FOR OKLAHOMA
NATIONAL WEATHER SERVICE NORMAN OK
900 PM CDT SUN MAY 24 2015

NOTE: "FAIR" INDICATES FEW OR NO CLOUDS BELOW 12,000 FEET WITH NO
      SIGNIFICANT WEATHER AND/OR OBSTRUCTIONS TO VISIBILITY.

OKZ001>007-009>012-014-015-017-250300-
NORTHWEST OKLAHOMA AND THE PANHANDLE

CITY           SKY/WX    TMP DP  RH WIND       PRES   REMARKS
GAGE           CLEAR     66  63  90 SE12      29.78R
GUYMON         CLEAR     67  51  56 S8        29.71R
ENID/WOODRING  MOCLDY    63  63 100 E12       29.84S
$$

OKZ016-021>023-033>039-044-045-250300-
SOUTHWEST OKLAHOMA

CITY           SKY/WX    TMP DP  RH WIND       PRES   REMARKS
LAWTON/REGL    PTCLDY    72  63  73 SE10      29.81R
LAWTON/FT SILL PTCLDY    71  64  81 SE8       29.80
FREDERICK      PTCLDY    72  64  76 SE12      29.76R
CLINTON        CLEAR     69  64  84 SE12      29.81R
HOBART         PTCLDY    70  64  81 SE12      29.79R
ALTUS AFB      PTCLDY    73  65  76 SE13      29.77R
$$

OKZ018>020-024>031-250300-
CENTRAL OKLAHOMA

CITY           SKY/WX    TMP DP  RH WIND       PRES   REMARKS
OKLAHOMA CITY  PTCLDY    66  63  90 E10       29.85R
OKC/WILEY POST PTCLDY    67  64  90 E9        29.85R
OKC/TINKER AFB MOCLDY    65  63  94 E7        29.85S
STILLWATER     MOCLDY    64  62  93 SE8       29.86S
GUTHRIE        MOCLDY    66  63  90 E7        29.85S
$$

OKZ008-013-054>072-250300-
NORTHEAST OKLAHOMA

CITY           SKY/WX    TMP DP  RH WIND       PRES   REMARKS
TULSA          CLOUDY    64  63  96 S7        29.88R
TULSA/JONES    CLOUDY    63  61  93 CALM      29.88F
PONCA CITY     LGT RAIN  65  64  97 E9        29.84S
BARTLESVILLE   CLOUDY    61  61 100 CALM      29.88R
MUSKOGEE       MOCLDY    65  63  93 S5        29.90R
$$

OKZ032-040>043-046>053-073>077-250300-
SOUTH CENTRAL/SOUTHEAST OKLAHOMA

CITY           SKY/WX    TMP DP  RH WIND       PRES   REMARKS
ARDMORE/DWNTWN PTCLDY    70  64  83 S6        29.86R
MCALESTER      MOCLDY    67  64  90 CALM      29.89R
$$



USA.gov is the U.S. government's official web portal to all federal, state and local government web resources and services.